Location: Hysolar-Haus
(48.7436°N, 9.0965°E)
Time: 18:09:44
(UTC+00:00)

ISS - Visible Passes

Search period start: 07 December 2025 00:00
Search period end: 17 December 2025 00:00
Orbit: 416 x 421 km, 51.6° (Epoch: 06 December)

Date Brightness Start Highest point End Pass type
(mag) Time Alt. Az. Time Alt. Az. Time Alt. Az.
11 Dec -0.5 06:14:19 10° S 06:16:16 15° SE 06:18:12 10° ESE visible
13 Dec -1.7 06:13:47 10° SSW 06:16:49 31° SE 06:19:52 10° E visible
14 Dec -1.2 05:26:22 10° SSW 05:28:59 21° SE 05:31:38 10° E visible
15 Dec -0.8 04:39:19 10° S 04:41:11 14° SE 04:43:03 10° ESE visible
15 Dec -3.3 06:14:07 10° WSW 06:17:27 66° SSE 06:20:49 10° ENE visible
16 Dec -2.7 05:26:43 13° SW 05:29:28 45° SSE 05:32:44 10° ENE visible
